Columbia, SC

3:01 PM EST on February 21, 2018 (GMT -0500)
Columbia Metro

Weather History for KCAE - August, 2014

Change the Weather History Date:

Sunday, August 17, 2014

  Actual Average Record
Temperature  
Mean Temperature 82 °F 81 °F  
Max Temperature 95 °F 91 °F 106 °F (1954)
Min Temperature 68 °F 71 °F 58 °F (1961)
Degree Days  
Heating Degree Days 0 0  
Month to date heating degree days 0 0  
Since 1 June heating degree days 0 1  
Since 1 July heating degree days 0 0  
Cooling Degree Days 17 16  
Month to date cooling degree days 276 282  
Year to date cooling degree days 1777 1559  
Since 1 June cooling degree days 1363 1238  
Growing Degree Days 32 (Base 50)    
Moisture  
Dew Point 66 °F    
Average Humidity 63    
Maximum Humidity 90    
Minimum Humidity 36    
Precipitation  
Precipitation 0.00 in 0.16 in 3.92 in (1949)
Month to date precipitation 4.79 3.05  
Year to date precipitation 27.99 29.71  
Sea Level Pressure  
Sea Level Pressure 29.98 in    
Wind  
Wind Speed 4 mph (WSW)    
Max Wind Speed 14 mph    
Max Gust Speed 18 mph    
Visibility 9 miles    
Events      
T = Trace of Precipitation, MM = Missing Value Source: NWS Daily Summary

Daily Weather History Graph

Daily Weather History Graph

Search for Another Location

Airport or City:

Trip Planner

Search our weather history database for the weather conditions in past years. The results will help you decide how hot, cold, wet, or windy it might be!

Date:

Astronomy

Aug. 17, 2014 Rise Set
Actual Time 6:47 AM EDT 8:08 PM EDT
Civil Twilight 6:21 AM EDT 8:35 PM EDT
Nautical Twilight 5:49 AM EDT 9:06 PM EDT
Astronomical Twilight 5:17 AM EDT 9:39 PM EDT
Moon 12:13 AM EDT (8/17) 2:10 PM EDT (8/17)
Length of Visible Light 14h 13m
Length of Day
13h 21m
Waning Gibbous, 48% of the Moon is Illuminated
Aug 17
Waning Gibbous
Aug 25
New
Sep 2
First Quarter
Sep 8
Full
Sep 15
Last Quarter

Hourly Weather History & Observations

Time (EDT) Temp. Heat Index Dew Point Humidity Pressure Visibility Wind Dir Wind Speed Gust Speed Precip Events Conditions
12:56 AM 73.9 °F - 68.0 °F 82% 30.00 in 10.0 mi WSW 3.5 mph - N/A   Clear
1:56 AM 73.0 °F - 68.0 °F 84% 29.99 in 9.0 mi SW 3.5 mph - N/A   Clear
2:56 AM 72.0 °F - 68.0 °F 87% 29.98 in 8.0 mi Calm Calm - N/A   Clear
3:56 AM 71.1 °F - 66.9 °F 87% 29.98 in 9.0 mi Calm Calm - N/A   Clear
4:56 AM 70.0 °F - 66.0 °F 87% 29.98 in 9.0 mi Calm Calm - N/A   Clear
5:56 AM 70.0 °F - 64.9 °F 84% 29.99 in 9.0 mi SW 3.5 mph - N/A   Clear
6:56 AM 69.1 °F - 64.9 °F 87% 30.01 in 7.0 mi SW 3.5 mph - N/A   Partly Cloudy
7:56 AM 72.0 °F - 66.0 °F 81% 30.02 in 6.0 mi Calm Calm - N/A   Haze
8:56 AM 77.0 °F - 66.9 °F 71% 30.03 in 8.0 mi WSW 3.5 mph - N/A   Clear
9:56 AM 84.0 °F 85.8 °F 64.9 °F 53% 30.03 in 10.0 mi West 8.1 mph - N/A   Clear
10:56 AM 88.0 °F 89.3 °F 64.0 °F 45% 30.03 in 10.0 mi West 6.9 mph - N/A   Clear
11:56 AM 91.4 °F 93.2 °F 64.4 °F 41% 30.02 in 10.0 mi West 8.1 mph - N/A   Partly Cloudy
12:56 PM 90.0 °F 90.6 °F 63.0 °F 40% 29.99 in 10.0 mi WSW 9.2 mph 18.4 mph N/A   Mostly Cloudy
1:56 PM 91.9 °F 93.3 °F 64.0 °F 39% 29.98 in 10.0 mi West 9.2 mph - N/A   Mostly Cloudy
2:56 PM 93.0 °F 93.8 °F 62.1 °F 36% 29.97 in 10.0 mi Variable 3.5 mph - N/A   Mostly Cloudy
3:56 PM 93.0 °F 94.2 °F 63.0 °F 37% 29.96 in 10.0 mi SSW 5.8 mph - N/A   Mostly Cloudy
4:56 PM 91.9 °F 92.5 °F 62.1 °F 37% 29.95 in 10.0 mi Calm Calm - N/A   Scattered Clouds
5:56 PM 93.0 °F 93.8 °F 62.1 °F 36% 29.94 in 10.0 mi SW 5.8 mph - N/A   Partly Cloudy
6:56 PM 91.9 °F 92.5 °F 62.1 °F 37% 29.94 in 10.0 mi SW 3.5 mph - N/A   Scattered Clouds
7:56 PM 86.0 °F 90.7 °F 70.0 °F 59% 29.94 in 9.0 mi South 4.6 mph - N/A   Mostly Cloudy
8:56 PM 84.0 °F 87.0 °F 68.0 °F 58% 29.94 in 10.0 mi Calm Calm - N/A   Mostly Cloudy
9:56 PM 82.0 °F 85.5 °F 69.1 °F 65% 29.95 in 10.0 mi SW 3.5 mph - N/A   Mostly Cloudy
10:56 PM 82.0 °F 84.9 °F 68.0 °F 62% 29.94 in 10.0 mi Calm Calm - N/A   Mostly Cloudy
11:56 PM 79.0 °F - 71.1 °F 77% 29.95 in 9.0 mi Calm Calm - N/A   Mostly Cloudy